User: anonymous   Login
Location: Unspecified
(0.0000°N, 0.0000°E)
Time: 23:41:35
(UTC+02:00)
Language:

Landsat 4 - Orbit

View from above orbital plane
View from above orbital plane
View from above satellite
View from above satellite

Ground track
Ground track

The orbit data is extracted from the following two-line orbital elements,

1 13367U 82072A   14294.77331902  .00007731  00000-0  46618-3 0  7737
2 13367 098.1995 006.8777 0013571 251.7948 262.7523 15.11000492738324
Epoch (UTC): 21 October 2014 18:33:34
Eccentricity: 0.0013571
inclination: 98.1995°
perigee height: 524 km
apogee height: 542 km
right ascension of ascending node: 6.8777°
argument of perigee: 251.7948°
revolutions per day: 15.11000492
mean anomaly at epoch: 262.7523°
orbit number at epoch: 73832

The dashed part of the orbit path shows where the satellite is in the earth's shadow,  

DLR